Starlink 11569

operational
NORAD ID: 62910 Int'l Des: 2025-027 Owner: SPXS Country: US Constellation: starlink
LEOCIRCULAR

Über Starlink 11569

Beschreibung wird geladen...

Live-Position

3D-Globus wird geladen...

Nächste Überflüge

Höhenverlauf

Altitude vs Time

uPlot chart will show altitude changes over time

Zweizeiliger Elementsatz

1 62910U 25027D 25303.66376720 .00323801 00000-0 24318-2 0 9991
2 62910 43.0003 51.3112 0002244 282.1451 77.9165 15.70821234 42709
Epoch: 30. Okt. 2025 • Age: 24 hours

Aktueller Status

Höhe 353.7 km
Geschwindigkeit 7.70 km/s
Subsatellitenpunkt 3.62°N, 123.35°E
Startdatum 8. Feb. 2025
Alter 0.7 years
Typ internet

Technische Details

Klassifizierung Payload
Masse 960.00 kg
Trockenmasse 910.00 kg
Gesamtmasse 960.00 kg
Länge 0.30 m
Durchmesser 4.10 m
Spannweite 29.00 m
Form Box + pan
Hersteller SPXS
Bus-Typ Starlink V2MD
Phasenstatus In Orbit
Besitzer/Staat SPXS/US

Große Konstellationen

Loading constellations...